2021-022AL

Last updated on Thu Apr 22 2021 00:02:05 GMT+0000 (Coordinated Universal Time)

1 48082U 21022AL 21111.48137505 .00002654 00000-0 18367-3 0 9993 2 48082 97.5618 14.8089 0016825 132.0878 280.8498 15.06426038 3008
UTC large
Height (km)
Speed (km/s)
/
Latitude / Longitude
Inclination (degrees)
Orbital Period (minutes)
Azimuth
Elevation
Range (km)
Doppler Factor

Next 0 passes for location: London (51.5072 / 0.1276)

Sorry there are no passes over London.